Showing default

HAWK-B, 43794

Orbit data source: Space-Track

HAWK-B, 43794 is a payload satellite in SSO that was launched on Mon, 03 Dec 2018 UTC via an FALCON 9 launch vehicle from the Air Force Western Test Range (AFWTR). Payload-class satellites include a variety of spacecraft equipped with specific instruments for various scientific and technological missions. These include communications satellites like Starlink; space stations such as the ISS; scientific satellites like the Hubble; Earth observation satellites from companies like Planet Labs, Umbra, and HawkEye 360; GPS; miniature CubeSats for education and research; and military/defense satellites.

Loading next visibility...
Identifier
43794, 2018-099AN
Orbit
SSO
Last TLE update
11 hours ago
Origin
Manufacturer
UTIAS-SFL
Mission
Operational Commercial Sigint
Bus & Motor
NEMO-V1, Unknown motor
Mass
12.75 kg wet, 12 kg dry
Launch date (UTC)
2018-12-03 (6 years ago)
Launch vehicle
FALCON 9
Launch site
Air Force Western Test Range (AFWTR)
Object type
Payload
Rocket body
Debris
Shape & HBR
Box + 2 Pan, 1 m
Radar Cross Section
0.348 m², Medium (>0.1 m² and < 1m²)

Expand to show TLE details & history

TLE from 11 hours ago
0 HAWK-B
1 43794U 18099AN  25140.20641294  .00004237  00000-0  25181-3 0  9990
2 43794  97.4341 193.5069 0016414 225.5801 134.4087 15.11697579353378
Epoch: 2025-05-20T04:57Z
TLE epoch observation values (Epoch: 2025-05-20T04:57:14.078Z)
Latitude
0.00001°
Longitude
-118.90976°
Altitude
542.048 km
Speed
7.587 km/s
True Right ascension
12h 54m 01s
True Declination
0° 00' 00"
Sunlit
Object was in full shadow at epoch
Visualization orbit readout
Latitude
-33.30491°
Longitude
-113.57418°
Altitude
546.106 km
Speed
7.586 km/s
Apparent Right ascension
13h 03m 26s
Apparent Declination
-36° 20' 33"
Sunlit
Object is in full shadow
Visualization observer readout
Local Sidereal Time
00:49:20
Azimuth
321.084° NNW
Elevation
-85.477°
Doppler factor
1
Orbital elements
Apogee altitude
539.337 km
Perigee altitude
516.665 km
Semi-major axis
6,906.138 km
Eccentricity
0.00164
Inclination
97.4341°
RAAN
193.5069°
Arg. of periapsis
225.5801°
True anomaly
Unknown
Mean anomaly
134.4087°
Eccentric anomaly
Unknown
Mean motion
3.78173 °/min
Orbital period
95.19 mins
BSTAR
0.00025181
Loading maneuver chart data...
Loading SW <> Apogee altitude chart data...
Loading historical data...
Loading historical data...
Loading historical data...
Loading historical data...
Loading historical data...
Loading historical data...
Loading historical data...

HAWK-B Visibility forecast

Observer location: undefined°, undefined°

Span
Click to sort rows by Start time (UTC) header in descending order
Start Az.
Max El. time (UTC)
Max El. Az.
Max El.
End time (UTC)
End Az.
7 mins2025-05-20 16:37:34.827Z3.719° NNE2025-05-20 16:41:34.827Z264.555° W39.821°2025-05-20 16:44:34.827Z207.29° SW
5 mins2025-05-21 03:20:34.827Z144.755° SSE2025-05-21 03:22:34.827Z71.066° E40.395°2025-05-21 03:25:34.827Z358.706° N
|